Simultaneous Nadir Overpasses (SNOs) Predictions

Prediction of SNOs between METOP-B and NOAA-19 Satellite Orbit:

Table of predicted SNOs for the next 14.0 days since TLE Epoch: 6/7/2015
Index Date (METOP-B) Time (METOP-B) Lat,Lon (METOP-B) SZA (METOP-B ) Date (NOAA-19) Time (NOAA-19) Lat,Lon (NOAA-19) SZA (NOAA-19 ) Distance(km) Time Diff (sec)
1 06/11/2015 15:43:27 75.49, -56.84 52.33 06/11/2015 15:42:21 75.51, -60.25 52.39 94.94 66
2 06/11/2015 16:34:20 -74.95, 108.87 128.22 06/11/2015 16:33:05 -74.98, 108.66 128.17 7.39 75
3 06/11/2015 17:25:01 74.90, -83.92 51.74 06/11/2015 17:24:11 74.92, -83.93 51.77 2.16 50
4 06/11/2015 18:15:43 -74.88, 83.34 128.29 06/11/2015 18:15:06 -74.91, 83.38 128.26 3.38 37
5 06/11/2015 19:06:23 74.88,-109.31 51.72 06/11/2015 19:06:13 74.89,-109.35 51.73 1.48 10
6 06/11/2015 19:57:05 -74.86, 57.95 128.31 06/11/2015 19:57:08 -74.88, 57.96 128.29 1.89 3
7 06/11/2015 20:47:45 74.87,-134.70 51.70 06/11/2015 20:48:15 74.86,-134.77 51.69 2.11 30
8 06/11/2015 21:38:27 -74.84, 32.56 128.33 06/11/2015 21:39:10 -74.85, 32.54 128.33 0.69 43
9 06/11/2015 22:29:07 74.85,-160.09 51.68 06/11/2015 22:30:17 74.83,-160.19 51.66 3.40 70
10 06/11/2015 23:19:56 -74.48, 6.25 128.68 06/11/2015 23:21:06 -74.53, 7.93 128.66 50.02 70




NCC Satellite Simultaneous Nadir Overpasses (SNOs) Prediction Service
